Location: Chrząstowo
(52.0654°N, 17.1290°E)
Time: 16:08:09
(UTC+01:00)

ISS - Pass Details

Date: 30 January 2019
Orbit: 403 x 411 km, 51.6° (Epoch: 20 February)

Event Time Altitude Azimuth Distance (km) Brightness Sun altitude
Rises 19:01:29 0° 271° (W) 2,338 1.6 -22.4°
Reaches altitude 10° 19:03:34 10° 271° (W) 1,478 0.1 -22.8°
Enters shadow 19:06:01 46° 267° (W) 562 -2.8 -23.1°
